Regional Weather Roundup
Issued by NWS

Home | Current Version | Previous Version | Graphics & Text | Print | Product List | Glossary On
Versions: 1 2 3 4 5 6 7 8 9 10 11 12 13 14 15 16 17 18 19 20 21 22 23 24 25 26 27 28 29 30 31 32 33 34 35 36 37 38 39 40 41 42 43 44 45 46 47 48 49 50
128
ASUS43 KMPX 302301
RWRMN
WEATHER ROUNDUP FOR MINNESOTA
NATIONAL WEATHER SERVICE TWIN CITIES/CHANHASSEN MN
600 PM CDT FRI SEP 30 2016


NOTE: "FAIR" INDICATES FEW OR NO CLOUDS BELOW 12,000 FEET WITH NO
SIGNIFICANT WEATHER AND/OR OBSTRUCTIONS TO VISIBILITY. N/A MEANS
CURRENT SKY AND/OR WEATHER CONDITIONS ARE NOT AVAILABLE.

MNZ060>063-068>070-010000-
   Twin Cities Metro

CITY           SKY/WX    TMP DP  RH WIND       PRES   REMARKS
TWIN CITIES    PTCLDY    70  48  45 NE10      30.22S
ST PAUL        CLEAR     70  50  49 NE8       30.22F
CRYSTAL        CLEAR     69  48  47 NE7       30.21S
BLAINE         CLEAR     72  52  49 NE9       30.23R
LAKEVILLE      CLEAR     68  50  52 NE5       30.21S
EDEN PRAIRIE   CLEAR     71  49  45 NE7       30.21S
LAKEVILLE      CLEAR     68  50  52 NE5       30.21S
SOUTH ST PAUL  CLEAR     70  48  45 N5        30.21S
LAKE ELMO      FAIR      68  52  56 NE5       30.22F
$$
MNZ001>005-007-008-013>017-022>024-027-028-010000-
   Northwest Minnesota

CITY           SKY/WX    TMP DP  RH WIND       PRES   REMARKS
BEMIDJI        CLOUDY    61  52  72 E8        30.29S
HALLOCK        SUNNY     66  54  63 SE9       30.20S
ROSEAU         CLOUDY    61  54  77 SE10      30.27F
WARROAD        CLEAR     61  54  77 SE6       30.29S
THIEF RVR FALL PTCLDY    67  49  52 SE13      30.24F
CROOKSTON      MOSUNNY   66  50  55 S13       30.22S
FOSSTON        PTCLDY    64  52  63 SE6       30.26S
DETROIT LAKES  CLOUDY    63  52  67 SE7       30.26S
MOORHEAD       MOSUNNY   68  48  49 SE9G17    30.22R
PARK RAPIDS    CLOUDY    65  46  50 SE8       30.27R
MAHNOMEN       FAIR      64  49  59 SE6       30.24S
$$
MNZ006-009>011-018-025>026-010000-
   North Central Minnesota

CITY           SKY/WX    TMP DP  RH WIND       PRES   REMARKS
BAUDETTE       CLOUDY    56  51  84 E9        30.31S
FLAG ISLAND    MOCLDY    55  50  82 SE12      30.28F
INTL FALLS     CLEAR     57  51  80 E6        30.32F
WASKISH        CLOUDY    61  54  77 E3        30.30S
BIG FORK       CLEAR     64  48  55 CALM      30.30F
GRAND RAPIDS   CLEAR     65  47  52 SE5       30.31S
ORR            CLEAR     64  52  63 CALM      30.29S
COOK           CLEAR     66  48  52 CALM      30.31F
WALKER         FAIR      59  52  76 CALM      30.28S
$$
MNZ012-019>021-037-010000-
   Northeast Minnesota

CITY           SKY/WX    TMP DP  RH WIND       PRES   REMARKS
DULUTH         CLOUDY    53  51  93 E9        30.33S
ELY            CLEAR     64  43  45 E7        30.32S
HIBBING        CLEAR     63  46  54 SE8       30.30F
EVELETH        CLEAR     65  44  47 E5        30.32S
DULUTH HARBOR  CLOUDY    55  54  94 NE16      30.34S
TWO HARBORS    MOCLDY    57  52  82 E9        30.32F
SILVER BAY     CLEAR     55  52  88 NE6       30.33S
GRAND MARAIS     N/A     59  56  89 E7        30.35F
G MARAIS ARPRT CLEAR     57  48  72 E3        30.37S
$$
MNZ029>031-032-039>041-046>048-054>057-064-010000-
   West Central Minnesota

CITY           SKY/WX    TMP DP  RH WIND       PRES   REMARKS
FERGUS FALLS   MOSUNNY   64  52  63 SE6       30.25S
MORRIS         SUNNY     66  45  45 SE9       30.22S
ALEXANDRIA     CLEAR     64  48  56 E9        30.26S
ELBOW LAKE     FAIR      65  49  56 SE12      30.23F
WADENA         CLOUDY    64  48  55 SE8       30.25S
GLENWOOD       CLOUDY    66  50  55 E8        30.25S
BENSON         CLOUDY    68  46  45 SE5       30.22S
ORTONVILLE     MOSUNNY   70  48  46 CALM      30.20S
MADISON        CLOUDY    72  48  43 SE7       30.20F
WILLMAR        FAIR      68  48  49 E7        30.24S
$$
MNZ033>034-036-042>043-049>051-058-059-010000-
   Central Minnesota

CITY           SKY/WX    TMP DP  RH WIND       PRES   REMARKS
ST CLOUD       CLEAR     68  50  52 VRB5      30.24S
SAUK CENTRE    FAIR      66  50  56 E9        30.24F
PAYNESVILLE    CLEAR     67  45  44 E6        30.24S
AITKIN         CLEAR     68  41  37 E8        30.27S
PINE RIVER     CLEAR     64  52  63 E5        30.30S
BRAINERD       CLEAR     66  50  56 NE3       30.27F
STAPLES        CLEAR     64  46  52 E3        30.26S
LONG PRAIRIE   FAIR      64  50  59 NE5       30.26S
LITTLE FALLS   CLEAR     64  50  59 CALM      30.25F
LITCHFIELD     CLEAR     70  50  49 E10       30.24R
BUFFALO        CLEAR     68  51  54 NE7       30.24S
MAPLE LAKE     CLEAR     68  53  58 E9        30.24S
HUTCHINSON     CLEAR     69  50  51 E8        30.23F
$$
MNZ037-044-045-052-053-010000-
   East Central Minnesota

CITY           SKY/WX    TMP DP  RH WIND       PRES   REMARKS
PRINCETON      CLEAR     70  50  49 E7        30.24S
MORA           CLEAR     64  52  63 NE7       30.27S
CAMBRIDGE      CLEAR     70  52  52 NE6       30.23S
MOOSE LAKE     MOCLDY    55  50  82 NE6       30.29S
HINCKLEY       FAIR      61  52  72 N8        30.27S
CLOQUET        CLOUDY    54  48  82 NE10G16   30.32S
MCGREGOR       CLEAR     63  50  63 E7        30.29S
$$
MNZ071>073-080-081-089-090-097-098-010000-
   Southwest Minnesota

CITY           SKY/WX    TMP DP  RH WIND       PRES   REMARKS
MONTEVIDEO     SUNNY     72  45  37 SE9       30.23S
GRANITE FALLS  SUNNY     71  47  41 E6        30.22S
CANBY          CLOUDY    71  45  39 SE10      30.21S
MARSHALL       SUNNY     70  47  43 SE8       30.21S
REDWOOD FALLS  SUNNY     70  45  40 E8        30.21S
OLIVIA         CLEAR     70  46  43 E8        30.21S
PIPESTONE      SUNNY     70  37  30 SE7       30.20S
WINDOM         SUNNY     70  46  43 E7        30.21S
WORTHINGTON    SUNNY     69  49  48 E8        30.21S
JACKSON        SUNNY     70  45  40 NE7       30.21S
TRACY          SUNNY     68  48  49 SE6       30.21S
$$
MNZ065>067-074>077-082>085-091>093-010000-
   South Central Minnesota

CITY           SKY/WX    TMP DP  RH WIND       PRES   REMARKS
MANKATO        CLEAR     69  53  56 NE8       30.21S
NEW ULM        CLEAR     68  52  56 E8        30.21S
ST JAMES       PTCLDY    70  52  52 NE6       30.21S
FAIRMONT       CLOUDY    69  53  56 E8        30.20S
GLENCOE        CLEAR     68  54  60 NE6       30.22S
FARIBAULT      CLEAR     70  50  49 NE5       30.21S
OWATONNA       CLEAR     70  52  52 NE7       30.20S
WASECA         CLEAR     70  52  52 NE7       30.21S
ALBERT LEA     CLOUDY    70  52  52 NE9       30.19F
$$
MNZ078>079-086>088-094>096-010000-
   Southeast Minnesota

CITY           SKY/WX    TMP DP  RH WIND       PRES   REMARKS
ROCHESTER      CLOUDY    67  55  65 NE6       30.21S
RED WING       CLEAR     72  50  46 CALM      30.19F
STANTON        CLEAR     72  50  46 NE7       30.19F
DODGE CENTER   CLOUDY    68  52  56 NE7       30.21S
WINONA         CLOUDY    68  55  64 CALM      30.20S
AUSTIN         CLOUDY    66  54  63 E7        30.19F
PRESTON        CLOUDY    64  54  69 NE5       30.21S
$$
ABBREVIATIONS USED IN REMARKS
   TC - TEMPERATURES IN CELSIUS
  WCI - WIND CHILL INDEX
   HX - HEAT INDEX
  VSB - VISIBILITY
$$




USA.gov is the U.S. government's official web portal to all federal, state and local government web resources and services.